Total_Precipitation_Accumulation
0.74 0.73 0.77 0.79 0.83 0.89 0.96 0.98 1.03 1.09 1.16 1.17 1.14 1.10 1.01 0.95 0.94 0.97 0.98 1.07 1.08 1.08 1.16 1.19 1.26 1.36 1.50 1.56 1.60 1.65 1.84 2.00 1.87 1.78 1.66 1.52 1.36 1.19 1.01 0.95 0.91 0.85 0.67
0.72 0.72 0.76 0.79 0.79 0.79 0.82 0.81 0.82 0.88 0.91 0.92 0.93 0.99 1.02 1.00 0.97 0.96 0.92 0.91 0.96 0.99 1.05 1.15 1.21 1.34 1.45 1.43 1.51 1.59 1.78 1.99 2.06 2.18 2.23 1.99 1.67 1.43 1.30 1.12 0.86 0.75 0.73
0.66 0.71 0.77 0.77 0.75 0.79 0.82 0.82 0.80 0.80 0.82 0.82 0.83 0.86 0.88 0.97 1.07 1.09 1.07 1.07 1.09 1.02 1.08 1.17 1.16 1.20 1.28 1.30 1.41 1.54 1.69 1.84 2.01 2.11 2.25 2.07 1.89 1.58 1.55 1.34 1.08 0.97 0.73
0.57 0.72 0.85 0.91 0.91 0.92 0.88 0.88 0.86 0.82 0.84 0.82 0.78 0.79 0.82 0.83 0.90 1.04 1.10 1.10 1.07 1.02 1.02 1.02 0.99 1.00 1.08 1.16 1.22 1.37 1.52 1.66 1.78 1.84 1.99 2.06 2.08 2.03 1.93 1.69 1.50 1.27 0.99
0.59 0.80 0.91 0.90 0.85 0.84 0.83 0.89 0.87 0.79 0.77 0.81 0.74 0.71 0.77 0.81 0.79 0.81 0.93 0.96 0.96 0.94 0.96 0.89 0.77 0.77 0.81 0.85 0.91 1.14 1.29 1.43 1.58 1.69 1.83 2.02 2.13 2.23 2.08 1.93 1.79 1.63 1.34
0.55 0.67 0.71 0.76 0.78 0.75 0.70 0.68 0.71 0.73 0.73 0.73 0.67 0.66 0.67 0.61 0.62 0.59 0.61 0.70 0.76 0.78 0.82 0.83 0.75 0.64 0.60 0.61 0.64 0.76 0.93 1.08 1.31 1.56 1.75 1.97 2.05 2.01 2.12 2.11 2.00 1.84 1.69
0.48 0.53 0.61 0.72 0.74 0.68 0.59 0.63 0.70 0.72 0.71 0.69 0.64 0.60 0.59 0.58 0.47 0.41 0.41 0.51 0.61 0.64 0.68 0.74 0.65 0.58 0.56 0.52 0.56 0.63 0.68 0.75 0.87 1.18 1.46 1.59 1.61 1.59 1.80 2.00 1.99 1.89 1.85
0.49 0.57 0.62 0.73 0.74 0.69 0.67 0.67 0.68 0.68 0.68 0.69 0.64 0.60 0.64 0.60 0.46 0.38 0.34 0.35 0.48 0.58 0.61 0.65 0.67 0.67 0.60 0.57 0.56 0.61 0.58 0.56 0.58 0.67 0.84 0.98 1.15 1.28 1.47 1.76 1.99 1.97 1.98
0.50 0.62 0.72 0.80 0.80 0.75 0.73 0.71 0.69 0.67 0.63 0.63 0.65 0.66 0.67 0.64 0.46 0.36 0.34 0.41 0.53 0.57 0.59 0.60 0.62 0.67 0.62 0.51 0.52 0.56 0.58 0.58 0.51 0.53 0.57 0.70 0.85 1.00 1.17 1.40 1.63 1.88 2.15
0.60 0.69 0.76 0.81 0.84 0.81 0.80 0.78 0.74 0.73 0.66 0.61 0.63 0.67 0.67 0.70 0.51 0.32 0.29 0.42 0.59 0.64 0.72 0.70 0.57 0.53 0.53 0.41 0.43 0.52 0.52 0.52 0.47 0.50 0.53 0.56 0.61 0.75 0.86 1.05 1.19 1.39 1.67
0.64 0.72 0.81 0.89 0.86 0.83 0.86 0.88 0.86 0.82 0.82 0.75 0.67 0.68 0.70 0.66 0.52 0.33 0.28 0.40 0.60 0.72 0.74 0.76 0.68 0.49 0.41 0.36 0.35 0.43 0.47 0.45 0.49 0.53 0.59 0.62 0.62 0.65 0.71 0.80 0.98 1.05 1.12
0.69 0.77 0.89 0.96 0.81 0.75 0.91 0.95 0.94 0.95 0.95 0.91 0.85 0.76 0.74 0.71 0.52 0.38 0.31 0.34 0.47 0.69 0.81 0.79 0.66 0.48 0.40 0.37 0.33 0.35 0.34 0.32 0.40 0.49 0.55 0.58 0.59 0.60 0.66 0.72 0.83 0.95 1.03
0.77 0.87 0.91 0.94 0.98 1.00 0.98 0.99 1.01 1.00 1.01 0.99 0.96 0.91 0.86 0.85 0.74 0.48 0.37 0.35 0.42 0.57 0.68 0.73 0.65 0.45 0.40 0.41 0.40 0.34 0.29 0.29 0.36 0.41 0.46 0.51 0.51 0.54 0.64 0.76 0.88 0.93 0.96
0.88 0.94 0.98 1.01 1.02 1.07 1.14 1.12 1.08 1.04 1.06 1.07 1.01 0.99 0.98 0.98 0.91 0.73 0.60 0.51 0.49 0.52 0.58 0.61 0.63 0.56 0.46 0.48 0.49 0.40 0.33 0.36 0.39 0.39 0.43 0.48 0.51 0.55 0.63 0.70 0.79 0.88 0.95
0.98 1.01 1.05 1.07 1.10 1.14 1.16 1.11 1.03 1.00 0.90 0.93 0.96 0.95 0.97 0.97 0.86 0.75 0.73 0.71 0.66 0.62 0.62 0.71 0.72 0.76 0.67 0.63 0.64 0.57 0.50 0.50 0.47 0.45 0.46 0.50 0.54 0.55 0.60 0.66 0.71 0.74 0.81
1.10 1.03 1.02 1.01 1.05 1.10 1.10 0.96 0.74 0.67 0.60 0.58 0.62 0.66 0.67 0.63 0.57 0.55 0.59 0.60 0.60 0.62 0.62 0.75 0.85 0.87 0.83 0.82 0.80 0.75 0.72 0.65 0.59 0.56 0.54 0.51 0.53 0.55 0.56 0.60 0.65 0.66 0.65
1.08 1.03 0.97 0.92 0.93 0.93 0.98 1.01 0.92 0.76 0.67 0.59 0.49 0.45 0.48 0.44 0.40 0.42 0.49 0.55 0.58 0.61 0.65 0.76 0.87 0.91 0.91 0.91 0.86 0.80 0.81 0.74 0.69 0.66 0.62 0.60 0.58 0.59 0.57 0.57 0.61 0.64 0.64
1.00 0.92 0.88 0.89 0.87 0.84 0.85 0.89 0.90 0.94 0.93 0.80 0.60 0.49 0.44 0.36 0.33 0.34 0.44 0.55 0.62 0.62 0.71 0.81 0.92 0.90 0.93 0.94 0.89 0.84 0.84 0.77 0.70 0.66 0.62 0.60 0.59 0.61 0.60 0.56 0.54 0.57 0.58
1.02 0.89 0.83 0.80 0.81 0.81 0.79 0.80 0.82 0.88 0.94 0.92 0.77 0.65 0.52 0.38 0.34 0.37 0.41 0.51 0.62 0.70 0.77 0.83 0.87 0.87 0.90 0.88 0.81 0.79 0.80 0.74 0.68 0.63 0.59 0.59 0.57 0.61 0.62 0.58 0.56 0.59 0.58
1.01 0.88 0.81 0.76 0.74 0.78 0.82 0.79 0.78 0.86 0.90 0.89 0.83 0.69 0.50 0.42 0.44 0.46 0.47 0.52 0.62 0.70 0.74 0.76 0.75 0.75 0.76 0.75 0.72 0.72 0.76 0.73 0.68 0.63 0.58 0.56 0.56 0.59 0.61 0.58 0.54 0.54 0.54
0.97 0.88 0.77 0.71 0.69 0.71 0.77 0.78 0.74 0.79 0.82 0.79 0.71 0.58 0.43 0.40 0.46 0.52 0.55 0.56 0.60 0.63 0.66 0.69 0.68 0.66 0.63 0.64 0.63 0.63 0.69 0.69 0.63 0.55 0.52 0.52 0.52 0.57 0.56 0.53 0.51 0.48 0.49
0.97 0.93 0.83 0.74 0.70 0.68 0.69 0.73 0.75 0.76 0.75 0.73 0.63 0.49 0.42 0.43 0.46 0.49 0.50 0.49 0.50 0.54 0.57 0.65 0.67 0.63 0.60 0.60 0.57 0.54 0.55 0.53 0.50 0.49 0.47 0.46 0.48 0.53 0.52 0.50 0.48 0.46 0.46
0.91 0.90 0.84 0.74 0.66 0.65 0.65 0.69 0.75 0.72 0.66 0.65 0.59 0.47 0.43 0.48 0.46 0.46 0.45 0.43 0.44 0.48 0.50 0.54 0.56 0.56 0.53 0.51 0.48 0.46 0.44 0.43 0.44 0.42 0.41 0.41 0.43 0.46 0.45 0.44 0.46 0.46 0.45
0.86 0.85 0.80 0.71 0.65 0.63 0.63 0.67 0.66 0.57 0.49 0.51 0.52 0.45 0.45 0.47 0.43 0.40 0.34 0.34 0.37 0.37 0.35 0.36 0.36 0.37 0.39 0.39 0.39 0.36 0.34 0.34 0.37 0.39 0.38 0.39 0.39 0.41 0.41 0.42 0.44 0.45 0.44
0.82 0.81 0.78 0.71 0.65 0.59 0.58 0.59 0.56 0.51 0.43 0.40 0.41 0.40 0.41 0.40 0.38 0.33 0.28 0.30 0.34 0.33 0.28 0.26 0.28 0.30 0.29 0.28 0.28 0.27 0.26 0.27 0.29 0.32 0.34 0.36 0.40 0.43 0.42 0.43 0.45 0.47 0.43
0.77 0.75 0.71 0.67 0.60 0.54 0.52 0.53 0.50 0.42 0.37 0.33 0.33 0.34 0.35 0.35 0.36 0.32 0.27 0.28 0.29 0.28 0.25 0.22 0.23 0.24 0.23 0.21 0.20 0.19 0.20 0.22 0.25 0.26 0.28 0.31 0.39 0.45 0.44 0.40 0.40 0.44 0.42